Location: Newark
(53.3469°N, 7.1606°E)
Time: 18:41:51
(UTC+00:00)

N. Korean satellite - Pass Details

Date: 18 November 2019
Orbit: 456 x 506 km, 97.2° (Epoch: 09 December)

Event Time Altitude Azimuth Distance (km) Brightness Sun altitude
Rises 04:56:58 0° 20° (NNE) 2,626 10.4 -18.1°
Reaches altitude 10° 04:59:14 10° 30° (NNE) 1,733 9.6 -17.8°
Maximum altitude 05:02:38 32° 96° (E) 880 8.6 -17.3°
Drops below altitude 10° 05:05:59 10° 161° (SSE) 1,705 9.7 -16.8°
Sets 05:08:11 0° 171° (S) 2,575 10.5 -16.5°
